Presque Isle, ME

5:24 AM EST on November 21, 2017 (GMT -0500)
Northern Maine Regional At Presque Isle

Weather History for KPQI - February, 2013

Change the Weather History Date:

Tuesday, February 26, 2013

  Actual Average Record
Temperature  
Mean Temperature 18 °F -  
Max Temperature 39 °F 27 °F 45 °F (2017)
Min Temperature -4 °F 8 °F -20 °F (1928)
Degree Days  
Heating Degree Days 48    
Moisture  
Dew Point 9 °F    
Average Humidity 72    
Maximum Humidity 93    
Minimum Humidity 42    
Precipitation  
Precipitation 0.00 in - - ()
Sea Level Pressure  
Sea Level Pressure 30.22 in    
Wind  
Wind Speed 0 mph (ENE)    
Max Wind Speed 4 mph    
Max Gust Speed -    
Visibility 10 miles    
Events      
Averages and records for this station are not official NWS values.
T = Trace of Precipitation, MM = Missing Value Source: NWS Daily Summary

Daily Weather History Graph

Daily Weather History Graph

Search for Another Location

Airport or City:

Trip Planner

Search our weather history database for the weather conditions in past years. The results will help you decide how hot, cold, wet, or windy it might be!

Date:

Astronomy

Feb. 26, 2013 Rise Set
Actual Time 6:16 AM EST 5:13 PM EST
Civil Twilight 5:46 AM EST 5:44 PM EST
Nautical Twilight 5:11 AM EST 6:19 PM EST
Astronomical Twilight 4:36 AM EST 6:54 PM EST
Moon 6:34 PM EST (2/26) 6:11 AM EST (2/26)
Length of Visible Light 11h 58m
Length of Day
10h 57m
Full, 99% of the Moon is Illuminated
Feb 26
Full
Mar 4
Last Quarter
Mar 11
New
Mar 19
First Quarter
Mar 27
Full

Hourly Weather History & Observations

Time (EST) Temp. Windchill Dew Point Humidity Pressure Visibility Wind Dir Wind Speed Gust Speed Precip Events Conditions
12:15 AM 6.8 °F - 3.2 °F 85% 30.14 in 10.0 mi Calm Calm - N/A   Clear
12:35 AM 5.0 °F - -0.4 °F 78% 30.14 in 10.0 mi Calm Calm - N/A   Clear
12:55 AM 5.0 °F - -0.4 °F 78% 30.15 in 10.0 mi Calm Calm - N/A   Clear
1:15 AM 5.0 °F - 1.4 °F 85% 30.16 in 10.0 mi Calm Calm - N/A   Clear
1:35 AM 3.2 °F - -0.4 °F 85% 30.16 in 10.0 mi Calm Calm - N/A   Clear
1:55 AM 3.2 °F - 1.4 °F 92% 30.15 in 10.0 mi Calm Calm - N/A   Clear
2:15 AM 3.2 °F - -0.4 °F 85% 30.15 in 10.0 mi Calm Calm - N/A   Clear
2:35 AM 1.4 °F - -4.0 °F 78% 30.16 in 10.0 mi Calm Calm - N/A   Clear
2:55 AM 1.4 °F - -2.2 °F 85% 30.16 in 10.0 mi Calm Calm - N/A   Clear
3:15 AM 1.4 °F - -2.2 °F 85% 30.17 in 10.0 mi Calm Calm - N/A   Clear
3:35 AM 1.4 °F - -5.8 °F 72% 30.18 in 10.0 mi Calm Calm - N/A   Clear
3:55 AM -0.4 °F - -7.6 °F 72% 30.18 in 10.0 mi Calm Calm - N/A   Clear
4:15 AM -0.4 °F - -5.8 °F 78% 30.19 in 10.0 mi Calm Calm - N/A   Clear
4:35 AM -2.2 °F - -5.8 °F 85% 30.19 in 10.0 mi Calm Calm - N/A   Clear
4:55 AM -0.4 °F - -2.2 °F 92% 30.20 in 10.0 mi Calm Calm - N/A   Clear
5:15 AM -0.4 °F - -9.4 °F 66% 30.21 in 10.0 mi Calm Calm - N/A   Clear
5:35 AM -2.2 °F - -9.4 °F 71% 30.22 in 10.0 mi Calm Calm - N/A   Clear
5:55 AM -4.0 °F - -7.6 °F 85% 30.22 in 10.0 mi Calm Calm - N/A   Clear
6:15 AM -2.2 °F - -5.8 °F 85% 30.23 in 10.0 mi Calm Calm - N/A   Clear
6:35 AM -4.0 °F - -9.4 °F 78% 30.24 in 10.0 mi Calm Calm - N/A   Clear
6:55 AM -2.2 °F - -5.8 °F 85% 30.25 in 10.0 mi Calm Calm - N/A   Clear
7:15 AM -0.4 °F - -4.0 °F 85% 30.25 in 10.0 mi Calm Calm - N/A   Clear
7:35 AM 1.4 °F - -2.2 °F 85% 30.25 in 10.0 mi Calm Calm - N/A   Clear
7:55 AM 3.2 °F - 1.4 °F 92% 30.26 in 10.0 mi Calm Calm - N/A   Clear
8:15 AM 8.6 °F - 6.8 °F 92% 30.26 in - Calm Calm - N/A   Unknown
8:35 AM 6.8 °F - 5.0 °F 92% 30.27 in - Calm Calm - N/A   Unknown
8:55 AM 12.2 °F 6.1 °F 6.8 °F 79% 30.27 in - ENE 3.5 mph - N/A   Clear
9:15 AM 15.8 °F - 6.8 °F 68% 30.27 in 6.0 mi Calm Calm - N/A   Clear
9:35 AM 17.6 °F - 8.6 °F 68% 30.27 in 8.0 mi Calm Calm - N/A   Clear
9:55 AM 21.2 °F 16.4 °F 8.6 °F 58% 30.27 in 9.0 mi ENE 3.5 mph - N/A   Clear
10:15 AM 24.8 °F - 12.2 °F 59% 30.27 in 10.0 mi Calm Calm - N/A   Clear
10:35 AM 24.8 °F - 10.4 °F 54% 30.28 in - Calm Calm - N/A   Clear
10:55 AM 26.6 °F - 17.6 °F 69% 30.27 in - Calm Calm - N/A   Clear
11:15 AM 30.2 °F - 15.8 °F 55% 30.27 in 10.0 mi Calm Calm - N/A   Clear
11:35 AM 32.0 °F - 15.8 °F 51% 30.27 in 10.0 mi Calm Calm - N/A   Clear
11:55 AM 30.2 °F - 15.8 °F 55% 30.26 in - Calm Calm - N/A   Clear
12:15 PM 33.8 °F 30.8 °F 17.6 °F 52% 30.25 in 10.0 mi ENE 3.5 mph - N/A   Clear
12:35 PM 33.8 °F - 17.6 °F 52% 30.25 in 10.0 mi Calm Calm - N/A   Clear
12:55 PM 39.2 °F - 17.6 °F 42% 30.25 in 10.0 mi Calm Calm - N/A   Clear
1:15 PM 37.4 °F 34.9 °F 17.6 °F 45% 30.24 in 10.0 mi ENE 3.5 mph - N/A   Clear
1:35 PM 37.4 °F 34.9 °F 17.6 °F 45% 30.23 in 10.0 mi ENE 3.5 mph - N/A   Clear
1:55 PM 37.4 °F 34.9 °F 19.4 °F 48% 30.22 in 10.0 mi NE 3.5 mph - N/A   Clear
2:15 PM 37.4 °F - 19.4 °F 48% 30.22 in 10.0 mi Calm Calm - N/A   Clear
2:35 PM 37.4 °F - 19.4 °F 48% 30.22 in 10.0 mi Calm Calm - N/A   Clear
2:55 PM 37.4 °F 34.9 °F 17.6 °F 45% 30.22 in 10.0 mi ENE 3.5 mph - N/A   Clear
3:15 PM 37.4 °F - 19.4 °F 48% 30.22 in 10.0 mi Calm Calm - N/A   Clear
3:35 PM 37.4 °F - 19.4 °F 48% 30.21 in 10.0 mi Calm Calm - N/A   Clear
3:55 PM 37.4 °F - 19.4 °F 48% 30.21 in 10.0 mi Calm Calm - N/A   Clear
4:15 PM 35.6 °F - 19.4 °F 52% 30.21 in 10.0 mi Calm Calm - N/A   Clear
4:35 PM 35.6 °F 32.8 °F 17.6 °F 48% 30.22 in 10.0 mi SSE 3.5 mph - N/A   Clear
4:55 PM 35.6 °F 32.8 °F 19.4 °F 52% 30.22 in 10.0 mi SSE 3.5 mph - N/A   Clear
5:15 PM 33.8 °F - 19.4 °F 56% 30.22 in 10.0 mi Calm Calm - N/A   Clear
5:35 PM 28.4 °F - 19.4 °F 69% 30.23 in 10.0 mi Calm Calm - N/A   Clear
5:55 PM 26.6 °F - 19.4 °F 74% 30.23 in 10.0 mi Calm Calm - N/A   Clear
6:15 PM 26.6 °F - 19.4 °F 74% 30.23 in - Calm Calm - N/A   Clear
6:35 PM 26.6 °F - 19.4 °F 74% 30.24 in - Calm Calm - N/A   Clear
6:55 PM 24.8 °F - 17.6 °F 74% 30.24 in - Calm Calm - N/A   Clear
7:15 PM 23.0 °F - 15.8 °F 74% 30.23 in - Calm Calm - N/A   Clear
7:35 PM 21.2 °F - 19.4 °F 93% 30.23 in 10.0 mi Calm Calm - N/A   Clear
7:55 PM 19.4 °F - 14.0 °F 80% 30.24 in 10.0 mi Calm Calm - N/A   Clear
8:15 PM 19.4 °F - 17.6 °F 93% 30.24 in 10.0 mi Calm Calm - N/A   Clear
8:35 PM 19.4 °F - 17.6 °F 93% 30.23 in - Calm Calm - N/A   Unknown
9:15 PM 17.6 °F - 14.0 °F 86% 30.23 in 10.0 mi Calm Calm - N/A   Clear
9:35 PM 15.8 °F - 14.0 °F 93% 30.23 in 10.0 mi Calm Calm - N/A   Clear
9:55 PM 15.8 °F - 10.4 °F 79% 30.24 in - Calm Calm - N/A   Clear
10:15 PM 15.8 °F - 14.0 °F 93% 30.24 in - Calm Calm - N/A   Unknown
10:35 PM 15.8 °F - 12.2 °F 86% 30.24 in 10.0 mi Calm Calm - N/A   Clear
10:55 PM 14.0 °F - 10.4 °F 86% 30.23 in 10.0 mi Calm Calm - N/A   Clear
11:15 PM 14.0 °F - 10.4 °F 86% 30.23 in 10.0 mi Calm Calm - N/A   Clear
11:35 PM 12.2 °F - 10.4 °F 92% 30.23 in 10.0 mi Calm Calm - N/A   Clear
11:55 PM 12.2 °F - 10.4 °F 92% 30.22 in 10.0 mi Calm Calm - N/A   Clear